Temp
-3 -3 -3 -3 -3 -3 -3 -3 -3 -3 -3 -3 -3 -2 -2 -2 -2 -2 -2 -2 -2 -2 -2 -1 -1 -1 -1 -1 -1 -1 -1 -1 -1 -1 -1 -1 -1 -1 -1 -1 -1 -1 -1 -1 -0 -0 -0 -0 0 1 1 2 2 2 3 3 3 4 4 5 5 5 6 6 6 7 7 7 8
-3 -3 -3 -3 -3 -3 -3 -3 -3 -3 -3 -3 -3 -3 -2 -2 -2 -2 -2 -2 -2 -2 -2 -2 -2 -1 -1 -1 -1 -1 -2 -2 -2 -1 -1 -1 -1 -1 -1 -1 -1 -0 -0 -0 -0 -0 -0 0 0 1 1 1 2 2 2 3 3 4 4 4 5 5 5 6 6 7 7 7 8
-4 -4 -3 -3 -3 -3 -3 -3 -3 -3 -3 -3 -3 -3 -3 -2 -2 -2 -2 -2 -2 -2 -2 -2 -2 -2 -1 -1 -1 -2 -2 -2 -2 -2 -1 -1 -1 -1 -1 -1 -0 -0 -0 -0 -0 -0 -0 0 0 1 1 1 2 2 2 3 3 3 4 4 5 5 5 6 6 6 7 7 8
-4 -4 -4 -4 -4 -4 -4 -4 -4 -4 -4 -3 -3 -3 -3 -3 -3 -3 -3 -3 -3 -3 -2 -2 -2 -2 -2 -2 -2 -2 -2 -2 -2 -2 -2 -1 -1 -1 -1 -1 -1 -0 -0 -0 -0 -0 0 0 0 1 1 1 2 2 2 2 3 3 4 4 5 5 5 6 6 6 7 7 7
-4 -4 -4 -4 -4 -4 -4 -4 -4 -4 -4 -4 -3 -3 -3 -3 -3 -3 -3 -3 -3 -3 -3 -2 -2 -2 -2 -2 -2 -2 -2 -2 -2 -2 -2 -2 -1 -1 -1 -1 -1 -1 -1 -1 -0 -0 -0 0 0 1 1 1 2 2 2 2 3 3 4 4 5 5 5 5 6 6 6 7 7
-5 -5 -4 -4 -4 -4 -4 -4 -4 -4 -4 -4 -4 -3 -4 -4 -4 -4 -4 -4 -3 -3 -3 -3 -2 -2 -2 -2 -2 -2 -2 -2 -2 -2 -2 -2 -2 -1 -1 -1 -1 -1 -1 -1 -1 -1 -0 -0 0 1 1 1 2 2 2 2 3 3 4 4 5 5 5 5 5 6 6 7 7
-5 -5 -5 -5 -5 -5 -5 -5 -5 -5 -4 -4 -4 -4 -4 -4 -4 -4 -4 -4 -4 -3 -3 -3 -3 -2 -2 -2 -2 -2 -2 -2 -2 -2 -2 -2 -2 -2 -2 -1 -1 -1 -1 -1 -1 -1 -1 -0 0 1 1 2 2 2 2 2 3 3 4 4 5 5 5 5 5 5 5 6 6
-5 -5 -5 -5 -5 -5 -5 -5 -5 -5 -5 -4 -4 -4 -5 -5 -5 -5 -4 -4 -4 -4 -3 -3 -3 -3 -3 -2 -2 -2 -3 -3 -3 -2 -2 -2 -2 -2 -2 -1 -1 -1 -1 -1 -1 -1 -1 -1 0 1 1 2 2 2 2 3 3 3 4 4 5 5 5 5 5 5 5 5 5
-5 -5 -5 -5 -5 -5 -5 -5 -5 -5 -5 -5 -5 -5 -5 -5 -5 -5 -5 -4 -4 -4 -4 -3 -3 -3 -3 -3 -3 -3 -3 -3 -3 -3 -2 -2 -2 -2 -2 -2 -1 -1 -1 -1 -1 -1 -1 -1 0 1 1 2 2 2 2 2 3 3 4 4 5 5 5 5 5 5 5 5 5
-5 -6 -6 -6 -6 -6 -6 -5 -5 -5 -5 -5 -5 -5 -5 -5 -5 -5 -5 -5 -4 -4 -4 -4 -3 -3 -3 -3 -3 -3 -3 -3 -3 -3 -3 -2 -2 -2 -2 -2 -2 -1 -1 -1 -2 -2 -1 -1 0 1 2 2 2 2 2 2 3 3 4 5 5 5 5 5 5 5 4 4 4
-6 -6 -6 -6 -6 -6 -6 -6 -5 -5 -5 -5 -5 -5 -5 -5 -5 -5 -5 -5 -5 -4 -4 -4 -4 -3 -3 -3 -3 -3 -3 -3 -3 -3 -3 -3 -2 -2 -2 -2 -2 -1 -1 -2 -2 -2 -1 -0 1 2 2 2 2 3 3 3 3 4 4 5 5 5 5 5 4 4 4 4 4
-6 -6 -6 -6 -6 -6 -6 -6 -6 -5 -5 -5 -5 -5 -6 -6 -6 -5 -5 -5 -5 -5 -4 -4 -4 -3 -3 -3 -3 -3 -3 -3 -3 -3 -3 -3 -3 -2 -2 -2 -2 -1 -2 -2 -2 -2 -1 -1 1 2 2 2 3 3 3 3 4 4 5 5 5 5 5 4 4 4 4 4 4
-7 -7 -6 -6 -6 -6 -6 -6 -6 -6 -5 -5 -6 -6 -6 -6 -6 -6 -5 -5 -5 -5 -4 -4 -4 -3 -3 -3 -3 -3 -3 -3 -3 -3 -3 -3 -3 -3 -2 -2 -2 -2 -2 -2 -2 -2 -2 -1 -1 0 1 1 2 2 3 3 4 4 4 5 5 4 4 4 4 4 4 3 3
-7 -7 -7 -7 -7 -7 -6 -6 -6 -6 -6 -6 -6 -6 -6 -6 -6 -6 -6 -5 -5 -5 -4 -4 -4 -4 -3 -3 -4 -4 -4 -3 -3 -3 -3 -3 -3 -3 -3 -2 -2 -2 -2 -2 -2 -2 -2 -2 -1 -1 -0 1 1 2 3 4 4 4 4 4 4 4 3 3 3 3 3 3 3
-7 -7 -7 -7 -7 -7 -7 -7 -6 -6 -6 -6 -6 -6 -6 -6 -6 -6 -6 -6 -5 -5 -5 -4 -4 -4 -4 -4 -4 -4 -4 -4 -3 -3 -3 -3 -3 -3 -3 -2 -2 -2 -2 -2 -2 -2 -2 -2 -2 -1 -1 -0 1 1 2 3 3 3 3 3 3 3 3 3 3 3 3 3 3
-7 -8 -8 -7 -7 -7 -7 -7 -7 -6 -6 -6 -6 -6 -6 -6 -6 -6 -6 -6 -5 -5 -5 -5 -4 -4 -4 -4 -4 -4 -4 -4 -3 -3 -4 -4 -4 -3 -3 -3 -3 -2 -2 -2 -2 -2 -2 -2 -2 -2 -2 -1 -1 -0 0 1 2 2 2 2 2 2 2 2 2 2 2 3 3
-8 -8 -8 -8 -8 -8 -7 -7 -7 -7 -7 -7 -7 -7 -7 -7 -7 -6 -6 -6 -6 -5 -5 -5 -4 -4 -4 -4 -4 -4 -4 -4 -4 -4 -4 -4 -4 -4 -3 -3 -3 -2 -2 -2 -2 -2 -2 -2 -2 -2 -2 -2 -2 -1 -1 -1 -0 0 1 1 1 1 1 1 2 2 2 2 3
-8 -8 -8 -8 -8 -8 -8 -7 -7 -7 -7 -7 -7 -7 -7 -7 -7 -7 -6 -6 -6 -6 -5 -5 -4 -4 -4 -4 -4 -4 -4 -4 -4 -4 -4 -4 -4 -4 -4 -3 -3 -3 -2 -2 -2 -2 -2 -1 -1 -2 -2 -2 -2 -2 -2 -2 -1 -1 -1 -1 -0 0 0 1 1 1 2 2 2
-9 -9 -9 -9 -8 -8 -8 -8 -7 -7 -7 -7 -7 -7 -7 -7 -7 -7 -6 -6 -6 -6 -5 -5 -4 -4 -4 -4 -4 -4 -4 -4 -4 -4 -4 -4 -4 -4 -4 -3 -3 -3 -2 -2 -2 -2 -2 -1 -1 -1 -2 -2 -2 -2 -2 -2 -2 -2 -2 -1 -1 -1 -0 0 1 1 1 1 2
-9 -9 -9 -9 -9 -8 -8 -8 -8 -7 -7 -7 -7 -7 -7 -7 -7 -7 -6 -6 -6 -6 -5 -5 -4 -4 -4 -4 -4 -4 -4 -4 -4 -4 -4 -4 -4 -4 -4 -4 -3 -3 -3 -2 -2 -2 -2 -1 -1 -1 -2 -2 -2 -2 -2 -2 -2 -2 -2 -2 -2 -1 -1 -1 -0 0 0 1 1
-10 -10 -10 -9 -9 -8 -8 -8 -8 -8 -7 -7 -7 -7 -7 -7 -7 -7 -7 -6 -6 -6 -5 -5 -4 -4 -4 -4 -4 -4 -4 -4 -4 -4 -4 -4 -4 -4 -4 -4 -3 -3 -2 -2 -2 -2 -2 -2 -2 -2 -2 -2 -2 -2 -2 -2 -2 -2 -2 -2 -2 -2 -1 -1 -1 -0 -0 -0 0
-10 -10 -10 -9 -9 -9 -8 -8 -8 -8 -7 -7 -7 -7 -7 -7 -7 -7 -7 -6 -6 -6 -6 -5 -4 -4 -4 -4 -4 -4 -4 -4 -4 -4 -5 -5 -5 -4 -4 -3 -3 -3 -2 -2 -2 -2 -2 -2 -2 -2 -2 -2 -2 -2 -2 -3 -3 -2 -2 -2 -2 -2 -2 -1 -1 -1 -1 -1 -0
-10 -10 -10 -10 -9 -9 -8 -8 -8 -8 -8 -7 -7 -7 -7 -7 -7 -7 -7 -6 -6 -6 -6 -5 -5 -4 -4 -4 -4 -4 -4 -4 -4 -4 -5 -5 -5 -4 -4 -3 -3 -3 -2 -2 -2 -2 -2 -3 -2 -2 -2 -3 -3 -3 -3 -3 -3 -3 -3 -3 -2 -2 -2 -2 -1 -1 -1 -1 -1
-10 -10 -10 -10 -9 -9 -8 -8 -8 -8 -8 -8 -7 -7 -7 -7 -7 -7 -7 -7 -6 -6 -6 -6 -5 -5 -4 -4 -4 -4 -4 -4 -4 -5 -5 -5 -5 -5 -4 -4 -3 -3 -3 -2 -2 -2 -2 -3 -3 -3 -3 -3 -3 -3 -3 -3 -3 -3 -3 -3 -3 -3 -2 -2 -2 -2 -1 -1 -1
-10 -10 -10 -10 -9 -9 -8 -8 -8 -8 -8 -8 -8 -8 -7 -7 -7 -7 -7 -7 -7 -6 -6 -6 -5 -5 -5 -4 -4 -5 -5 -5 -5 -5 -5 -5 -5 -5 -4 -4 -4 -3 -3 -2 -1 -1 -2 -3 -3 -3 -3 -3 -3 -3 -3 -3 -3 -3 -3 -3 -3 -3 -3 -2 -2 -2 -2 -2 -1
-10 -10 -10 -10 -9 -9 -8 -8 -8 -8 -8 -8 -8 -8 -7 -7 -7 -8 -7 -7 -7 -7 -7 -6 -6 -5 -5 -5 -5 -5 -5 -5 -5 -5 -5 -5 -5 -5 -5 -4 -4 -4 -3 -3 -1 -1 -2 -2 -3 -3 -3 -3 -3 -3 -3 -3 -3 -3 -3 -3 -3 -3 -3 -3 -3 -2 -2 -2 -2
-10 -10 -10 -9 -9 -9 -8 -8 -8 -8 -8 -8 -8 -8 -8 -8 -8 -8 -8 -8 -7 -7 -7 -6 -6 -6 -5 -5 -5 -5 -5 -5 -5 -5 -5 -5 -5 -5 -5 -5 -4 -4 -4 -2 -2 -2 -2 -2 -3 -3 -3 -3 -3 -3 -4 -4 -4 -4 -4 -4 -3 -3 -3 -3 -3 -3 -3 -2 -2
-10 -10 -10 -9 -9 -9 -8 -8 -8 -8 -8 -8 -8 -8 -8 -8 -8 -8 -8 -8 -8 -8 -7 -7 -6 -6 -6 -6 -5 -5 -5 -5 -5 -5 -5 -5 -5 -5 -5 -5 -5 -4 -4 -2 -2 -2 -2 -2 -3 -3 -3 -3 -3 -3 -4 -4 -4 -4 -4 -4 -4 -4 -4 -3 -3 -3 -3 -3 -2
-10 -10 -10 -9 -9 -9 -8 -8 -8 -8 -8 -8 -8 -8 -8 -8 -8 -8 -8 -8 -8 -8 -7 -7 -7 -7 -6 -6 -6 -6 -6 -6 -5 -5 -5 -5 -5 -5 -5 -5 -5 -5 -4 -3 -3 -2 -2 -2 -3 -3 -3 -4 -3 -3 -4 -4 -4 -4 -4 -4 -4 -4 -4 -4 -3 -3 -3 -3 -3
-10 -10 -9 -9 -9 -9 -9 -8 -8 -8 -8 -8 -8 -8 -8 -8 -8 -8 -8 -8 -8 -8 -8 -8 -7 -7 -7 -6 -6 -6 -6 -6 -6 -5 -5 -5 -5 -5 -5 -5 -5 -5 -5 -4 -3 -2 -2 -3 -3 -3 -3 -4 -4 -4 -4 -4 -4 -4 -4 -4 -4 -4 -4 -4 -4 -3 -3 -3 -3
-10 -10 -9 -9 -9 -9 -9 -8 -8 -8 -8 -8 -8 -9 -9 -9 -9 -9 -9 -8 -8 -8 -8 -8 -8 -7 -7 -7 -6 -6 -6 -6 -6 -6 -5 -5 -5 -5 -5 -5 -5 -5 -5 -4 -3 -2 -2 -3 -3 -3 -4 -4 -4 -4 -4 -4 -4 -4 -4 -4 -4 -4 -4 -4 -4 -4 -3 -3 -3
-10 -9 -9 -9 -9 -9 -9 -9 -8 -8 -8 -9 -9 -9 -9 -9 -9 -9 -9 -9 -8 -8 -8 -8 -8 -7 -7 -7 -7 -7 -6 -6 -6 -6 -6 -5 -5 -5 -5 -5 -5 -5 -5 -4 -3 -3 -3 -3 -3 -3 -4 -4 -4 -4 -4 -4 -4 -4 -4 -4 -4 -4 -4 -4 -4 -4 -3 -3 -3
-10 -9 -9 -9 -9 -9 -9 -9 -8 -8 -9 -9 -9 -9 -9 -9 -9 -9 -9 -9 -8 -8 -8 -8 -8 -8 -7 -7 -7 -7 -6 -6 -6 -6 -6 -6 -5 -5 -5 -5 -5 -5 -5 -4 -3 -3 -3 -3 -3 -4 -4 -4 -4 -4 -4 -4 -4 -4 -4 -4 -4 -4 -4 -4 -4 -4 -3 -3 -3
-10 -9 -9 -9 -9 -9 -9 -9 -8 -9 -9 -9 -9 -9 -9 -9 -9 -9 -9 -9 -8 -8 -8 -8 -8 -8 -7 -7 -7 -7 -6 -6 -6 -6 -6 -6 -5 -5 -5 -6 -6 -6 -5 -4 -4 -3 -3 -3 -3 -4 -4 -4 -4 -4 -4 -4 -4 -4 -4 -4 -4 -4 -4 -4 -4 -4 -3 -3 -3
-10 -9 -9 -9 -9 -9 -9 -9 -8 -9 -9 -9 -10 -10 -10 -10 -10 -9 -9 -9 -8 -8 -8 -8 -8 -8 -8 -7 -8 -7 -6 -6 -6 -6 -6 -6 -6 -5 -5 -6 -6 -6 -5 -5 -4 -3 -3 -3 -3 -4 -4 -4 -4 -4 -4 -4 -4 -4 -4 -4 -4 -4 -4 -4 -4 -4 -3 -3 -3
-10 -10 -10 -9 -10 -9 -9 -9 -9 -9 -9 -10 -10 -10 -10 -10 -10 -10 -9 -9 -9 -9 -8 -8 -8 -8 -8 -8 -8 -7 -6 -6 -6 -6 -6 -6 -6 -6 -6 -6 -6 -6 -5 -5 -4 -4 -3 -3 -4 -4 -4 -4 -5 -4 -4 -4 -4 -4 -4 -4 -4 -4 -4 -4 -4 -3 -3 -3 -3
-10 -10 -10 -10 -10 -10 -9 -9 -9 -9 -10 -10 -10 -10 -10 -10 -10 -10 -9 -9 -9 -9 -8 -8 -8 -8 -8 -8 -8 -7 -7 -6 -6 -6 -6 -6 -6 -6 -6 -6 -6 -6 -6 -5 -5 -4 -3 -3 -4 -4 -5 -5 -5 -5 -5 -4 -4 -4 -4 -4 -4 -4 -4 -4 -3 -3 -3 -3 -3
-10 -10 -10 -10 -10 -10 -9 -9 -9 -9 -10 -10 -10 -10 -10 -10 -10 -10 -10 -9 -9 -9 -9 -8 -8 -8 -8 -8 -8 -7 -7 -6 -6 -6 -6 -6 -6 -6 -6 -6 -6 -6 -6 -6 -5 -4 -4 -3 -3 -4 -5 -5 -5 -5 -5 -5 -5 -5 -5 -4 -4 -4 -4 -4 -3 -3 -3 -3 -3
-10 -10 -10 -10 -10 -10 -9 -9 -9 -10 -10 -10 -10 -10 -10 -10 -10 -10 -10 -10 -9 -9 -9 -9 -8 -8 -8 -8 -8 -7 -7 -7 -7 -7 -7 -7 -6 -6 -6 -7 -7 -6 -6 -6 -5 -4 -4 -4 -3 -4 -5 -5 -5 -5 -5 -5 -5 -5 -5 -5 -5 -4 -4 -4 -3 -3 -3 -3 -3
-10 -10 -10 -10 -10 -10 -10 -10 -10 -10 -10 -10 -10 -10 -10 -10 -10 -10 -10 -10 -9 -9 -9 -9 -9 -8 -8 -8 -8 -7 -7 -7 -7 -7 -7 -7 -7 -7 -7 -7 -7 -7 -6 -6 -5 -5 -4 -4 -4 -4 -5 -5 -5 -5 -5 -5 -5 -5 -5 -5 -5 -5 -4 -4 -4 -3 -3 -3 -3
-10 -10 -10 -10 -10 -10 -10 -10 -10 -10 -10 -10 -10 -10 -10 -10 -10 -10 -10 -10 -10 -9 -9 -9 -9 -8 -8 -8 -8 -7 -7 -7 -7 -7 -7 -7 -7 -7 -7 -7 -7 -7 -7 -6 -5 -5 -4 -4 -4 -5 -5 -5 -5 -5 -5 -5 -5 -5 -5 -5 -5 -5 -5 -4 -4 -4 -4 -3 -3
Height
842 840 838 837 835 833 831 829 827 825 823 821 819 816 814 812 810 808 806 803 801 799 796 794 791 789 787 784 782 780 778 775 773 771 769 766 764 761 759 757 755 753 751 750 748 746 744 742 741 739 737 735 733 731 730 728 727 726 724 723 722 720 719 718 717 716 715 714 714
842 840 839 837 835 833 831 829 827 825 823 821 819 817 815 812 810 808 806 803 801 799 796 794 791 789 786 784 782 780 777 775 772 770 767 765 762 761 758 756 754 752 750 748 746 744 742 740 739 737 735 733 731 729 727 726 725 724 722 721 720 718 717 716 714 713 712 712 711
842 840 839 837 835 833 831 829 827 825 823 821 819 817 815 813 811 808 806 804 801 799 796 794 791 789 786 784 782 780 777 775 772 769 766 764 761 759 757 755 752 750 748 746 744 742 740 738 736 735 733 730 729 727 726 724 723 722 721 719 717 716 715 713 711 711 710 709 709
842 841 838 836 835 833 831 829 827 825 822 821 818 816 815 813 811 808 806 803 801 799 796 794 791 789 786 784 782 779 777 775 772 769 766 763 761 758 756 753 751 748 746 744 742 740 737 736 734 732 730 728 726 725 723 722 721 720 718 717 716 714 712 711 709 708 707 706 707
842 841 839 837 835 833 831 829 827 825 822 820 818 816 814 812 811 808 805 803 800 798 796 793 791 788 786 784 781 779 776 774 771 768 765 762 760 757 754 752 749 746 744 741 739 737 735 734 731 729 727 725 724 722 721 720 719 718 716 715 713 712 711 709 707 706 705 705 705
842 841 839 837 835 833 831 829 827 825 822 820 818 816 814 812 810 807 805 802 800 797 795 792 790 788 785 783 781 778 775 773 770 767 765 761 759 756 753 750 748 745 743 740 737 735 733 731 729 726 724 722 721 720 719 718 717 716 714 713 711 710 709 707 706 705 704 704 704
843 841 839 837 835 833 831 828 826 824 822 820 817 816 813 811 809 806 804 801 799 796 794 791 789 787 784 782 780 777 775 772 769 766 764 761 758 755 752 749 746 744 741 739 736 733 730 728 726 724 721 720 718 717 716 716 715 714 712 711 709 708 707 706 704 703 703 703 703
843 841 839 837 835 832 830 828 826 823 821 819 817 815 813 811 808 806 803 800 798 796 793 791 788 786 784 781 779 777 774 771 768 765 762 760 757 754 751 748 746 743 740 737 734 731 728 725 723 721 719 717 716 715 714 714 713 712 711 709 708 706 706 705 703 703 702 702 701
843 841 839 836 834 832 830 828 826 823 821 819 816 814 812 810 807 804 802 799 797 795 793 790 788 785 783 781 779 776 773 771 767 765 762 759 756 754 751 747 745 742 739 736 732 729 726 722 720 718 716 715 714 713 712 712 711 710 709 707 706 705 704 704 703 702 701 701 700
843 841 838 836 834 831 829 827 825 823 821 818 816 814 811 809 806 804 801 799 797 794 792 789 787 785 782 780 778 775 773 770 767 764 761 759 756 753 750 747 744 741 738 735 731 727 723 720 717 715 713 712 712 711 711 710 709 708 707 706 705 704 703 703 702 702 701 700 699
843 841 838 836 834 831 829 826 824 822 820 817 815 813 810 808 806 803 801 799 796 793 791 789 786 784 782 780 777 775 772 770 767 764 761 758 756 753 750 747 744 741 738 734 730 726 722 719 716 713 711 710 710 709 709 708 708 706 705 704 703 702 702 702 702 702 701 700 698
843 841 838 836 834 831 829 826 824 821 819 817 815 812 810 807 805 803 800 798 795 793 790 788 786 784 781 779 777 775 772 769 766 764 761 758 755 752 749 746 744 741 738 734 731 726 723 719 716 713 711 710 709 708 707 706 706 705 704 703 702 701 701 701 702 702 701 699 698
843 840 838 836 833 831 829 826 824 821 819 817 815 812 810 807 805 802 800 797 795 792 790 787 785 783 781 779 777 774 771 769 766 763 761 758 755 752 749 746 743 741 738 735 731 727 724 720 717 714 712 710 708 706 705 704 704 704 703 702 701 700 700 701 701 701 700 699 698
842 840 838 836 833 831 828 826 824 821 819 816 814 812 809 807 805 802 799 797 794 791 789 787 785 783 781 779 777 774 771 769 766 763 761 758 755 752 749 746 743 741 739 736 732 728 725 721 718 715 712 710 708 706 704 703 703 703 702 701 700 700 699 700 700 699 699 698 699
842 840 838 835 833 831 828 826 824 821 819 816 814 812 809 806 804 802 799 796 794 791 789 786 784 782 781 779 776 774 771 768 766 763 760 758 755 752 749 746 743 741 739 736 733 730 726 722 719 716 713 711 708 706 705 703 703 702 701 701 700 700 699 699 698 698 698 699 699
842 840 837 835 833 831 829 826 824 822 819 817 814 811 809 806 804 801 799 796 793 791 788 786 784 782 780 778 776 774 771 768 766 763 760 758 755 752 749 746 744 741 739 737 734 731 727 724 721 718 715 712 710 708 706 705 704 703 702 701 701 700 699 698 697 698 698 699 699
841 839 837 835 833 831 829 826 825 822 820 817 814 811 809 806 804 801 799 796 793 791 788 786 784 782 780 778 776 774 771 768 766 763 761 758 755 752 750 746 744 742 740 738 735 732 728 726 722 720 717 714 712 710 709 707 706 705 704 703 702 701 700 699 698 698 699 699 699
841 839 837 835 833 831 828 826 824 822 820 817 814 811 809 806 804 801 799 796 793 791 787 785 783 782 780 778 776 774 771 769 766 764 761 758 756 753 750 747 744 742 741 739 736 733 730 727 724 722 719 716 715 713 711 709 708 707 706 705 704 702 701 699 698 699 699 699 699
841 839 837 835 832 830 828 826 824 822 819 816 814 811 809 806 803 801 798 795 793 790 787 785 783 781 780 778 776 774 771 769 767 764 761 759 756 753 750 747 745 742 741 740 737 735 731 729 726 724 721 719 717 715 713 712 711 710 709 707 706 704 702 701 700 700 700 700 700
841 839 836 835 832 830 828 826 824 821 819 816 814 811 808 806 803 801 798 795 793 790 787 785 783 781 780 778 776 774 772 770 767 764 762 759 756 753 750 747 745 743 741 740 738 736 733 730 728 726 724 722 720 718 716 714 713 712 711 710 708 707 705 703 702 701 701 701 701
841 839 836 834 832 830 828 826 824 821 819 816 814 811 808 805 803 800 798 796 793 790 787 785 783 782 781 779 776 774 772 770 767 765 762 760 757 754 751 748 746 744 741 739 738 737 734 732 730 728 726 724 722 721 719 717 716 715 713 712 711 709 707 705 704 704 703 703 702
841 838 836 834 832 830 828 826 823 821 819 816 813 811 808 805 802 800 798 796 793 790 788 785 784 782 781 779 777 775 772 770 768 766 763 760 757 754 751 748 746 744 742 739 739 737 735 733 731 730 728 726 725 723 721 720 718 717 716 715 713 711 710 708 706 706 705 704 703
840 838 836 833 831 829 827 825 823 821 818 816 813 810 808 805 802 800 798 796 793 791 788 786 784 783 781 780 777 775 772 770 768 765 763 761 758 755 752 749 747 745 742 740 740 739 736 735 733 731 730 728 727 725 723 722 721 719 718 717 715 714 712 710 709 708 707 706 704
840 838 836 833 831 829 827 825 822 820 818 816 813 811 808 805 802 800 797 796 793 791 788 786 785 783 781 780 778 776 773 771 768 766 763 761 759 756 753 750 748 746 744 741 741 740 738 736 735 733 731 730 729 727 726 724 723 721 720 719 717 716 714 712 711 709 708 707 706
840 837 835 833 831 828 826 824 822 820 818 816 813 811 808 805 803 800 798 796 793 791 789 787 785 783 781 780 778 776 774 771 769 766 764 761 760 757 755 752 750 748 746 743 742 741 740 738 736 735 733 732 731 729 728 726 725 723 722 721 719 717 715 713 712 711 710 709 707
839 837 835 832 830 828 826 824 822 820 818 816 813 811 808 806 803 801 798 796 794 791 789 787 786 784 782 780 778 776 774 772 769 767 765 763 761 758 756 754 752 749 747 745 744 743 741 740 738 736 735 734 732 731 730 728 727 726 724 722 721 719 717 715 713 712 711 710 709
839 836 834 832 830 828 826 824 822 820 818 816 813 811 808 806 803 801 799 796 794 792 790 788 786 784 782 781 779 776 775 772 770 768 766 764 762 760 758 756 753 751 748 747 746 744 742 741 740 738 736 735 734 732 731 730 729 727 726 724 722 721 718 717 715 714 713 711 710
839 836 834 832 830 828 826 824 821 820 817 816 814 811 809 806 804 801 799 796 794 792 790 788 786 785 783 781 779 777 775 773 771 769 767 765 763 761 759 757 755 752 750 749 747 745 744 742 740 739 737 736 735 734 733 732 731 729 728 726 724 722 721 719 717 716 715 713 712
839 836 834 832 830 828 826 824 821 820 818 816 814 811 809 806 804 802 799 797 795 793 791 789 787 786 784 782 780 778 776 774 771 770 767 766 764 762 760 758 756 753 751 750 748 746 745 743 741 739 738 737 736 735 734 733 732 731 729 728 726 725 723 721 720 718 716 715 713
839 837 834 832 830 828 826 824 822 820 818 816 814 811 809 807 804 802 800 797 795 794 792 791 788 786 784 782 780 778 776 774 772 770 768 766 765 763 761 759 756 754 752 751 749 747 746 744 742 741 739 738 737 736 735 734 733 732 731 730 728 726 725 723 721 720 718 717 716
839 837 835 832 830 828 826 824 822 820 818 816 814 812 809 807 805 803 801 798 796 795 793 791 788 786 784 783 781 779 777 775 773 771 769 767 766 764 761 760 757 755 753 751 750 748 746 745 743 741 740 739 738 736 736 735 734 733 732 731 730 728 726 725 723 722 721 719 718
839 837 835 832 830 828 826 824 822 820 819 816 815 812 810 808 806 804 801 799 797 795 793 791 788 786 785 783 781 779 778 776 774 772 770 768 766 765 762 760 758 756 754 753 751 749 747 746 744 742 741 740 738 737 736 736 735 734 734 733 731 730 728 727 726 724 723 722 721
839 837 835 833 831 828 826 824 822 821 819 817 815 813 811 808 806 804 801 800 798 796 794 791 789 787 786 784 781 780 778 777 775 773 771 769 767 766 764 761 759 757 755 754 752 750 748 747 745 743 742 741 739 738 737 736 736 735 734 734 733 731 730 729 728 727 726 725 724
840 837 835 833 831 829 826 824 823 821 819 817 815 813 811 809 806 804 802 800 798 796 795 793 791 789 786 785 782 781 779 778 775 773 771 770 768 766 765 762 760 758 756 754 752 751 749 747 745 744 742 741 740 739 738 737 736 736 735 734 734 733 732 731 730 729 728 727 726
840 838 836 833 831 829 826 825 823 821 819 817 816 813 811 809 807 805 803 801 799 797 795 793 791 789 787 785 782 781 780 778 776 774 772 771 769 767 765 763 761 759 757 755 753 751 749 748 746 744 742 741 741 740 739 738 737 737 736 735 734 733 732 732 731 730 730 729 728
840 838 836 834 831 829 827 826 824 822 820 818 816 814 811 810 807 806 804 802 800 797 795 793 791 790 787 785 783 781 781 779 777 775 773 771 770 768 766 764 762 760 758 756 754 752 750 748 746 744 743 742 741 741 740 739 738 738 737 736 735 734 733 733 732 731 731 730 730
841 839 836 834 832 830 828 826 824 822 820 818 816 815 812 810 808 806 804 802 800 798 796 794 792 790 788 786 784 782 781 780 778 776 774 772 771 769 767 765 763 761 759 757 756 753 751 749 746 745 744 743 743 742 741 741 740 739 738 737 736 736 735 734 733 732 731 731 730
841 839 837 835 832 831 829 827 825 823 821 819 817 815 813 811 809 806 805 803 801 799 797 795 793 791 789 787 785 783 782 781 779 777 775 773 771 770 768 766 764 762 760 759 757 755 752 750 748 746 746 745 744 744 743 742 741 740 740 739 738 737 736 736 734 733 733 732 731
841 839 837 835 833 831 829 828 826 824 821 820 817 816 814 812 810 807 806 804 802 800 798 796 794 792 790 789 786 784 783 781 780 778 776 774 773 771 770 767 765 763 761 760 758 756 754 752 750 748 747 746 746 746 745 744 743 742 741 740 740 739 738 737 736 735 735 734 733
841 839 837 836 833 832 830 828 826 824 822 820 818 816 814 812 811 808 806 804 802 801 799 797 795 793 791 789 787 786 784 782 781 779 777 775 774 772 770 768 766 765 763 761 759 758 756 754 752 750 748 748 748 747 746 746 745 744 743 742 741 741 740 739 738 737 737 736 735
841 839 837 836 834 832 830 828 826 824 822 821 819 817 815 813 811 809 807 805 803 801 800 797 795 793 791 790 788 786 785 783 781 780 778 776 775 773 771 769 767 766 764 762 761 759 757 756 753 751 750 749 749 749 748 747 746 746 745 745 744 743 742 741 741 740 739 738 737
Wind_Speed
23 23 23 22 21 21 21 21 21 21 22 22 23 23 23 23 24 24 23 24 24 25 26 25 25 26 28 29 30 31 32 32 33 33 32 32 31 31 30 30 29 29 29 29 29 28 27 26 26 26 26 26 26 26 26 26 25 25 25 25 25 25 25 26 26 26 27 28 29
24 24 24 22 22 22 23 22 22 22 23 23 23 23 23 24 24 24 24 24 25 25 25 25 25 26 28 29 29 30 32 33 34 34 33 32 31 30 30 30 30 30 29 29 29 28 27 27 27 27 27 27 26 26 26 25 25 25 25 25 25 26 26 27 27 27 26 26 28
25 25 24 23 23 24 24 23 23 24 25 25 24 23 23 23 23 24 24 25 26 25 25 25 25 26 27 28 29 30 32 33 34 34 33 32 31 31 31 30 30 30 30 30 29 28 28 28 28 27 27 27 27 27 26 26 25 25 25 25 25 26 26 27 27 26 25 25 27
25 25 25 24 25 25 25 24 25 26 26 25 24 23 23 23 24 24 25 26 26 25 25 25 26 26 27 28 30 31 32 32 33 33 32 32 31 31 31 31 31 31 31 30 29 29 29 29 28 27 27 28 29 29 27 26 25 24 24 24 25 26 26 27 26 25 25 26 28
26 26 25 25 25 25 25 24 26 27 27 26 24 24 24 25 25 26 26 26 25 25 26 26 26 26 27 29 30 31 32 32 32 32 32 32 31 31 31 31 30 30 30 30 29 29 29 29 28 28 28 28 28 27 26 25 25 25 24 23 23 23 23 24 24 24 24 25 27
27 27 26 26 26 26 26 26 27 27 27 26 24 25 26 27 27 27 27 26 25 26 26 27 27 27 29 30 30 31 31 31 32 32 31 32 32 32 31 31 31 30 30 30 30 30 30 30 29 28 27 27 27 27 26 25 24 24 23 22 21 19 19 19 19 19 20 21 24
26 26 27 27 27 27 27 28 28 28 27 26 25 26 28 29 29 29 28 27 26 26 26 26 27 28 30 30 30 30 30 31 32 32 31 32 32 32 32 31 31 31 31 31 32 32 32 30 29 28 27 26 26 25 24 23 23 23 22 21 19 18 18 17 17 16 15 15 18
26 26 27 27 27 28 28 29 29 28 27 26 26 28 30 31 30 30 29 27 26 26 26 27 28 29 30 30 30 29 30 31 31 32 32 32 33 33 32 32 32 32 32 33 33 33 32 30 28 28 27 26 25 24 23 23 23 23 23 22 20 19 17 16 15 13 11 10 12
26 27 27 28 28 28 29 30 29 28 27 26 27 29 30 31 31 30 29 27 26 26 27 28 29 30 30 29 29 29 29 30 31 31 32 32 33 33 33 33 32 33 33 34 34 34 33 31 29 28 26 25 24 23 23 23 23 23 23 23 21 19 17 16 14 12 9 7 7
27 28 28 28 29 30 30 30 29 28 27 27 28 30 31 32 31 30 28 27 27 28 29 30 30 30 29 28 28 28 29 29 30 31 32 32 33 33 34 33 33 33 34 35 34 34 33 32 30 28 27 26 25 25 24 24 24 24 24 23 21 18 16 15 14 11 8 4 5
27 28 28 28 30 30 31 30 29 28 27 27 28 31 32 32 32 30 29 28 28 29 30 30 30 29 28 27 27 28 29 30 30 31 32 32 33 34 35 35 34 34 34 35 34 33 33 32 30 28 26 25 24 24 23 22 23 24 24 24 21 19 17 15 13 11 8 5 5
27 27 28 28 30 31 31 30 29 28 27 28 30 31 32 32 31 31 30 30 30 30 30 29 28 28 27 26 27 28 29 30 30 30 31 31 33 35 36 36 34 34 34 34 34 34 33 33 31 28 23 20 18 18 19 20 21 23 25 25 22 19 16 16 15 14 12 9 9
27 28 28 29 30 31 31 31 29 28 28 30 31 32 32 32 31 31 30 31 31 30 29 28 27 26 26 26 27 28 29 30 30 30 30 30 32 35 37 37 35 34 33 34 33 33 33 32 31 29 25 21 17 16 17 19 20 22 23 21 19 16 14 15 16 16 15 14 13
27 28 28 29 30 30 30 30 29 28 29 31 32 33 32 32 31 30 31 31 30 30 29 28 27 26 25 26 27 28 28 29 29 30 30 30 31 34 36 37 36 34 33 34 34 34 33 32 32 30 28 25 21 17 15 16 16 16 15 14 13 12 13 13 14 14 14 13 13
28 28 29 30 30 30 30 29 28 28 30 32 33 33 33 32 31 31 31 31 31 30 29 28 28 26 25 25 26 27 28 28 29 30 31 31 33 34 35 36 35 33 32 33 34 34 34 33 32 31 29 26 23 18 13 10 10 10 10 10 10 10 10 10 9 9 8 8 9
28 29 29 30 30 30 30 29 28 28 30 32 33 33 33 33 32 32 31 32 31 31 30 29 28 26 25 25 25 27 28 28 29 30 31 32 33 34 34 35 34 32 30 31 33 34 35 34 33 32 30 28 25 21 17 12 7 5 5 5 5 4 3 2 2 1 1 3 4
28 29 29 30 30 30 30 30 29 29 31 33 34 34 34 34 33 33 32 32 32 32 32 31 29 27 25 25 26 26 27 28 30 31 31 32 33 34 34 34 33 31 29 28 31 33 35 35 34 33 31 30 28 25 22 18 15 11 8 5 4 5 6 7 7 6 5 4 4
29 29 30 30 30 31 31 30 30 30 32 34 35 35 35 35 35 34 34 33 33 33 33 33 30 26 25 25 26 27 28 29 30 31 32 33 34 34 34 33 32 31 28 26 28 31 34 34 34 33 32 32 30 28 26 24 21 17 14 12 11 11 10 11 10 9 8 7 7
29 30 30 30 30 30 30 30 30 31 32 34 35 36 37 37 37 36 36 35 34 33 33 32 29 26 25 25 26 27 28 28 30 31 32 33 34 35 34 33 32 31 28 25 26 29 33 33 33 33 32 32 31 30 28 26 25 22 19 17 16 14 13 12 12 11 9 8 8
30 30 31 30 30 30 30 30 30 31 32 34 35 36 37 38 37 37 37 36 34 33 34 32 28 25 24 25 26 27 28 28 29 30 31 33 34 35 35 33 32 30 28 25 24 27 31 32 32 31 31 31 31 30 29 27 26 24 22 20 19 18 17 16 14 12 11 10 10
30 31 31 30 30 29 29 29 30 31 32 33 35 36 37 38 38 37 36 35 34 33 34 32 28 24 23 25 26 28 28 28 29 29 30 33 34 35 35 34 32 30 28 26 23 25 29 31 31 30 30 29 29 29 29 28 27 25 23 22 21 20 20 20 18 16 15 14 13
31 31 31 30 29 29 29 28 29 30 32 33 35 36 38 38 38 37 36 35 34 34 34 32 29 25 23 24 26 28 28 28 28 29 30 32 33 35 35 35 33 30 28 28 24 24 27 31 30 29 29 29 28 28 28 27 26 25 24 23 21 21 21 21 20 19 18 17 16
32 31 30 30 29 29 28 28 29 30 32 33 35 36 38 38 38 37 36 35 34 33 33 31 29 26 23 23 26 28 28 28 29 29 30 31 33 34 35 35 33 30 29 30 25 23 25 29 29 29 28 28 27 27 26 26 25 25 24 23 22 21 21 21 21 20 20 19 18
32 31 30 29 29 29 28 28 29 30 31 32 34 36 37 38 38 38 37 36 34 33 32 31 29 27 25 23 25 27 28 28 29 30 31 31 32 33 35 35 34 32 30 31 25 21 23 26 27 28 27 27 26 25 25 24 24 24 23 23 22 21 21 20 20 20 20 20 20
32 31 31 30 30 29 28 28 29 30 30 32 34 36 37 38 38 38 37 36 34 33 31 30 29 27 26 25 26 27 27 28 28 29 30 30 31 32 33 34 34 33 33 32 24 21 23 24 24 25 26 25 24 23 23 23 23 23 22 22 22 21 21 21 21 21 21 21 21
31 31 31 31 30 29 28 28 29 29 30 31 33 35 37 38 37 37 37 36 34 32 30 29 28 27 26 26 26 27 27 27 28 28 28 28 29 30 31 32 32 34 34 31 23 23 24 23 22 22 24 24 23 22 21 21 21 21 21 22 22 22 22 22 22 22 21 21 21
31 31 31 30 30 29 28 28 29 29 29 30 33 35 36 37 37 36 36 35 34 32 29 28 27 26 25 26 27 27 27 27 27 27 27 27 27 28 29 29 31 34 34 28 24 24 24 22 20 20 21 22 21 20 19 19 20 20 21 22 22 23 24 24 23 22 22 22 22
31 31 31 30 29 28 28 28 29 29 29 30 32 34 36 36 36 36 35 35 33 31 29 27 27 26 25 25 26 27 27 27 26 26 26 26 26 27 27 28 30 34 33 28 26 25 23 20 18 18 19 20 19 18 18 18 19 20 21 22 23 23 24 24 24 23 22 22 22
31 31 30 30 28 28 28 28 28 28 28 29 32 34 35 35 35 35 34 34 32 30 28 27 26 25 25 25 26 27 27 27 26 26 26 26 26 26 27 28 30 34 34 29 27 25 22 18 17 17 17 17 17 17 16 17 18 19 21 22 23 23 24 24 25 24 24 23 23
31 31 30 29 28 28 28 29 28 27 27 29 32 34 35 35 34 34 34 33 31 28 27 27 26 26 26 26 26 26 26 26 25 25 25 26 25 26 27 28 30 33 35 31 27 25 22 18 16 15 15 15 15 14 15 16 17 19 21 22 23 24 24 25 26 26 25 24 23
31 30 29 28 28 28 29 29 27 26 26 29 32 34 34 33 33 33 32 31 28 27 27 28 28 27 26 27 26 26 26 26 25 24 24 25 24 25 27 28 29 32 34 33 28 25 22 19 16 15 14 14 13 13 13 15 17 19 21 22 24 25 25 26 26 27 26 26 24
31 30 29 28 28 28 29 29 27 25 26 30 32 33 33 32 32 32 31 29 27 27 28 29 28 27 27 27 27 26 25 25 25 24 24 24 24 25 27 28 29 29 31 33 29 25 22 20 17 14 13 13 12 11 12 13 16 18 20 22 23 24 25 25 26 27 27 26 25
31 30 29 28 28 29 30 29 26 25 27 30 32 32 32 32 32 32 31 29 27 27 27 28 27 26 26 26 26 25 24 23 24 24 24 24 23 24 25 27 28 27 28 31 31 26 22 21 18 14 12 12 11 10 10 12 15 17 19 20 22 23 24 24 24 25 25 25 24
31 30 29 28 28 29 30 28 25 25 28 31 32 31 31 31 32 32 31 28 27 27 27 27 26 25 25 26 26 24 22 22 24 25 25 24 23 23 24 26 27 27 27 30 31 27 22 19 17 14 12 12 11 10 10 11 13 16 17 19 20 21 22 22 22 22 23 23 22
31 29 29 28 29 30 30 27 25 27 29 31 31 31 31 31 31 31 29 27 27 27 28 27 26 26 27 27 28 24 22 23 25 25 24 24 23 23 24 26 28 28 28 29 31 30 25 17 14 14 13 12 11 10 10 11 13 14 16 17 18 18 19 20 20 20 20 20 20
30 29 29 29 30 30 29 27 26 28 30 30 30 30 30 31 30 30 28 26 27 28 28 28 27 27 28 28 29 25 22 23 24 24 24 23 23 23 24 26 27 29 29 29 30 32 29 19 11 11 12 12 11 11 11 12 13 14 15 15 16 16 17 18 18 18 18 17 17
30 30 29 29 30 30 28 26 27 28 30 30 29 29 29 30 30 29 28 26 27 28 28 28 27 27 27 28 29 26 22 22 23 24 24 24 23 23 24 25 27 28 29 29 30 32 31 26 12 8 11 13 13 12 12 13 13 13 13 14 14 15 15 16 16 17 17 16 15
31 30 29 29 29 29 28 27 27 29 29 29 28 28 28 28 28 28 27 25 26 26 27 26 27 27 26 26 27 26 23 22 22 22 23 24 24 23 23 25 26 27 28 29 30 31 31 29 16 10 11 14 14 14 14 14 13 13 13 13 13 13 14 14 15 16 16 16 15
30 30 29 29 28 28 27 27 28 29 29 28 27 27 27 27 27 27 27 26 26 26 25 25 26 27 26 25 26 25 24 22 21 21 22 23 23 23 23 25 26 27 28 28 30 30 29 27 20 14 13 15 16 16 16 15 13 13 13 13 13 14 14 14 15 16 16 16 16
30 29 29 28 27 27 26 27 28 29 29 27 27 26 26 26 26 27 27 27 27 25 24 24 26 27 26 24 23 24 23 22 21 21 21 22 23 23 24 25 26 27 27 27 28 29 27 25 22 18 16 17 18 18 17 16 14 13 14 14 14 15 15 15 16 17 17 17 17
30 30 29 28 27 26 25 26 28 29 29 27 26 25 25 26 27 28 28 27 26 25 24 24 26 27 26 24 22 22 22 22 22 21 21 21 22 24 25 26 26 27 27 27 27 27 26 24 22 20 18 18 18 19 18 17 15 14 14 15 15 16 16 16 17 17 17 17 18
Wind_Direction
338 338 337 336 334 332 330 329 329 329 329 328 326 325 325 325 325 324 323 324 324 323 322 320 319 319 320 321 321 322 322 322 322 321 320 317 314 312 309 307 306 305 303 302 300 299 298 298 298 297 296 295 293 292 291 289 287 286 285 287 288 288 286 283 278 273 269 265 261
339 338 336 335 333 332 331 330 329 329 328 327 324 324 325 326 325 324 323 323 323 322 320 319 318 318 320 322 323 324 324 323 323 322 321 319 317 315 313 311 310 308 305 302 300 297 295 295 295 294 293 292 290 289 288 287 285 284 284 286 287 287 285 281 277 273 269 266 262
340 338 336 334 334 334 333 331 329 328 327 326 324 324 326 327 326 324 322 322 322 321 320 319 317 319 321 323 324 325 325 324 325 324 323 321 320 320 319 318 316 314 311 307 303 298 295 293 292 290 289 288 287 287 286 285 283 281 282 286 287 287 284 280 276 273 270 266 263
340 338 335 334 334 334 333 330 328 327 327 326 324 325 327 328 326 324 322 322 322 322 320 318 318 320 323 324 324 325 325 326 327 327 326 324 324 324 324 323 322 320 317 313 308 302 298 295 291 288 286 284 284 284 283 282 280 280 281 285 287 287 284 279 276 274 271 267 264
341 338 336 334 334 333 332 329 328 327 326 325 324 326 328 330 328 326 324 323 322 320 318 318 320 322 324 325 325 325 326 327 328 329 329 328 328 328 327 326 325 324 322 318 313 308 303 299 293 288 285 283 282 282 281 279 278 278 281 285 287 288 286 282 277 274 271 267 264
340 338 336 335 334 334 332 330 329 328 327 325 325 327 330 331 329 327 325 322 320 319 319 320 322 324 326 326 326 326 326 327 329 329 330 331 332 332 330 329 328 327 325 322 318 313 308 304 297 290 284 281 280 280 278 276 275 276 279 282 285 288 289 285 280 275 271 267 262
338 337 336 336 335 334 333 331 330 329 328 327 328 330 331 331 328 327 325 323 321 321 322 323 324 325 327 327 327 328 328 329 329 330 331 333 334 335 334 332 331 330 328 325 321 317 313 308 300 292 285 281 279 278 276 274 273 274 275 277 281 286 289 287 284 280 276 273 266
338 337 337 336 336 335 333 333 332 331 330 330 331 332 332 331 329 327 326 324 323 323 324 324 325 325 326 327 328 328 329 330 330 330 331 333 335 336 336 335 335 334 331 328 324 321 317 312 304 294 286 281 278 276 274 272 272 272 273 273 276 280 283 283 282 282 284 289 285
339 338 337 337 337 336 335 335 334 333 332 332 333 334 333 333 331 329 327 324 323 323 324 324 325 325 326 327 329 330 330 331 331 331 332 334 336 338 338 338 338 337 334 332 329 326 323 317 308 297 288 280 276 275 274 272 271 271 270 270 271 273 275 275 274 276 283 303 320
339 338 338 338 338 338 337 337 336 335 335 334 335 335 335 334 333 331 328 325 324 324 325 325 325 326 327 328 329 331 332 333 332 332 333 334 337 340 341 341 341 339 338 336 334 333 331 325 314 301 289 280 275 274 274 273 271 270 269 268 267 269 271 271 270 270 276 307 354
339 339 339 338 339 339 339 338 338 337 336 336 336 336 336 336 335 333 331 329 327 326 327 327 327 327 328 329 331 333 334 335 333 332 333 335 338 341 343 343 343 343 342 341 341 341 339 334 325 312 296 283 276 273 272 272 272 271 269 267 264 263 265 268 268 269 275 299 346
339 339 339 339 340 340 340 340 339 338 338 337 337 337 337 336 335 334 332 332 330 329 328 329 328 328 329 330 332 334 336 336 335 335 335 335 338 341 344 345 346 346 346 347 348 349 348 345 340 332 319 302 286 276 272 271 273 274 273 269 265 261 261 266 268 270 276 289 311
340 340 340 340 341 341 342 341 340 339 338 339 338 338 337 335 335 335 334 333 332 330 329 330 329 329 330 331 333 335 337 338 338 337 336 336 338 341 344 346 346 348 350 352 355 356 356 353 350 345 337 328 313 293 278 273 273 275 275 273 269 266 266 268 271 273 278 287 295
341 341 341 341 342 342 342 342 341 339 339 339 339 338 337 336 336 336 335 334 332 331 331 331 331 331 331 332 335 337 338 339 339 338 338 339 340 342 345 347 347 349 352 356 0 3 3 1 358 352 345 338 330 316 295 280 276 277 279 280 279 277 275 274 277 281 285 287 284
342 342 342 341 342 343 342 342 341 340 339 338 338 338 338 337 337 337 336 335 334 333 333 332 332 332 332 334 337 339 341 341 341 341 341 341 342 344 345 347 349 350 353 359 4 7 9 9 7 3 358 352 348 342 330 309 290 283 283 285 285 283 281 279 282 287 288 278 265
342 342 342 342 342 342 342 341 340 339 339 338 338 338 339 339 339 338 337 336 336 335 334 333 333 333 333 336 339 342 343 344 344 343 343 343 343 344 346 348 350 351 353 359 5 10 13 14 14 13 10 8 6 5 4 3 356 336 312 296 293 296 305 320 319 313 284 245 222
341 342 342 342 342 341 341 341 340 339 338 338 339 340 340 340 340 340 339 338 337 336 335 335 335 335 335 338 341 344 345 346 346 345 344 344 344 345 346 348 351 352 354 359 6 11 15 17 18 19 19 18 18 18 19 21 24 27 30 34 45 58 67 71 77 83 89 96 115
341 341 341 341 341 340 340 340 340 339 338 339 340 341 342 342 342 341 341 341 340 338 337 336 337 338 338 340 343 346 347 347 347 347 346 346 346 347 348 348 352 354 356 359 7 13 16 18 20 21 22 23 24 24 24 25 27 29 34 39 47 56 63 68 73 76 77 76 77
341 341 341 340 340 339 339 339 339 339 339 340 342 343 343 344 344 344 344 344 343 341 339 338 339 341 342 342 345 347 348 348 347 347 348 349 349 350 350 350 352 356 359 0 7 13 17 19 20 22 23 24 25 26 26 26 26 28 30 33 38 45 54 62 68 72 72 69 68
341 341 340 340 339 338 338 339 338 339 340 342 343 344 345 345 346 347 347 346 344 343 342 342 342 342 344 345 347 348 348 348 348 348 349 351 352 352 352 352 353 358 2 3 7 13 18 20 21 22 23 23 24 25 25 25 25 25 26 28 33 39 48 56 63 68 70 69 71
341 341 340 340 339 338 338 338 339 340 341 343 345 346 346 347 347 348 348 347 346 346 346 345 344 343 345 347 349 349 349 349 348 348 350 352 354 355 355 355 355 359 3 4 7 14 18 20 22 22 23 23 24 24 24 23 22 21 22 24 28 34 42 49 56 60 62 64 69
341 341 341 340 340 339 339 338 339 341 343 345 347 347 348 348 348 348 349 349 349 349 348 347 344 343 344 348 350 350 350 349 348 349 350 353 355 357 358 358 358 359 1 3 7 14 19 20 21 22 23 24 24 25 24 23 21 20 20 21 24 29 36 43 48 52 54 57 61
342 342 342 341 341 341 341 339 340 342 345 347 348 349 349 349 349 349 350 351 351 351 349 348 344 342 342 346 349 350 350 349 349 350 351 354 356 359 0 1 0 360 0 2 5 14 20 19 20 21 23 24 25 26 25 24 22 20 18 19 21 25 30 36 41 45 48 51 54
343 343 343 342 342 342 342 340 341 343 346 347 348 349 349 349 349 349 350 351 352 351 350 348 346 343 342 343 347 349 349 349 348 349 351 354 356 359 1 2 1 1 1 0 4 16 24 21 18 19 21 23 25 26 27 26 23 21 18 18 18 21 26 33 38 41 45 48 50
343 343 343 343 343 343 343 342 342 343 345 347 348 349 349 349 349 349 350 351 352 351 349 347 347 346 344 343 346 347 348 348 348 348 349 352 355 358 360 0 1 2 2 359 5 21 28 22 18 18 19 22 25 27 28 27 25 23 20 19 18 20 24 30 35 40 43 46 49
344 344 344 344 344 344 343 343 342 343 345 347 348 349 349 349 349 349 349 350 351 351 349 347 347 347 347 346 346 347 347 347 347 347 348 350 353 355 357 358 359 360 359 359 12 26 27 21 19 18 18 21 24 27 28 28 27 25 23 22 22 23 24 27 32 36 41 45 48
344 344 344 344 345 345 344 343 342 343 345 347 348 349 349 348 348 348 349 349 350 350 348 347 346 346 347 348 348 348 347 347 347 347 348 349 351 353 354 355 356 355 356 4 21 26 22 19 19 19 19 20 24 27 29 28 28 28 27 27 26 27 27 28 29 33 38 42 47
345 344 344 344 344 344 344 343 343 343 345 347 348 348 348 348 347 347 348 349 350 349 348 346 345 345 346 347 348 348 347 347 347 347 348 350 351 352 352 352 351 351 355 8 18 19 16 17 19 20 20 20 24 28 31 31 31 31 30 30 30 30 30 31 32 34 37 40 45
345 345 345 345 344 344 344 343 342 343 344 346 347 348 348 347 347 347 348 349 349 348 346 345 343 343 344 345 347 348 348 348 347 348 349 350 351 351 351 350 349 348 351 1 7 8 9 14 17 20 21 21 25 30 34 36 36 36 35 34 33 32 32 33 34 35 38 41 45
346 346 345 344 343 343 343 343 341 342 345 347 348 348 348 347 346 347 347 348 347 345 344 343 342 342 342 344 346 348 348 348 349 349 349 350 350 351 351 351 349 347 347 352 357 2 6 11 15 19 20 22 25 32 38 42 42 41 40 39 38 36 35 35 35 37 39 42 45
346 345 344 342 343 343 343 342 341 343 346 349 349 348 348 347 346 346 346 346 344 343 343 344 343 342 343 344 346 347 348 349 350 350 350 350 350 351 352 352 351 349 347 350 354 0 5 10 14 18 20 21 25 33 42 47 48 47 45 44 42 41 39 38 37 38 40 43 45
346 345 344 342 342 342 342 341 342 345 349 350 350 349 348 346 345 346 347 346 344 343 344 344 344 343 342 343 345 347 349 350 350 350 350 350 353 354 354 353 353 351 349 351 357 2 6 9 14 18 21 21 25 34 44 50 52 51 50 48 47 45 44 42 41 41 42 44 47
346 345 344 343 342 342 342 341 344 349 352 352 351 349 348 347 346 347 348 347 345 344 343 343 342 340 339 341 342 345 348 351 351 351 351 352 354 355 355 354 354 352 348 349 356 2 6 9 14 20 23 22 25 32 43 49 50 50 48 48 48 48 47 46 45 44 44 46 50
346 345 344 343 343 343 343 344 348 353 354 352 351 350 348 348 347 347 347 347 344 343 343 343 341 340 339 341 342 344 348 352 354 354 353 353 354 355 355 355 356 354 350 348 352 358 4 8 15 21 26 26 26 30 37 42 43 42 41 41 43 45 47 47 47 46 46 47 50
346 345 344 343 344 345 345 347 351 354 354 352 351 350 349 348 347 347 347 345 343 343 344 344 342 342 343 345 345 345 348 354 354 354 353 353 354 354 354 354 356 357 355 352 351 355 0 6 14 22 27 30 28 27 29 32 33 32 31 31 34 38 41 43 45 45 45 46 49
346 345 344 343 344 346 347 348 351 353 352 351 350 349 348 348 348 348 347 344 344 344 344 344 344 344 345 346 346 346 348 353 353 353 354 354 354 353 352 354 356 358 359 356 352 353 357 3 12 22 26 31 30 26 23 24 24 24 24 26 29 33 36 39 40 41 41 42 45
346 345 344 344 344 345 347 348 350 350 350 350 349 348 348 347 347 348 347 344 344 344 345 344 344 344 345 346 345 346 348 352 353 353 353 353 354 353 352 352 355 358 359 356 354 353 357 4 11 24 29 34 33 28 23 21 22 23 26 30 33 35 37 38 39 39 39 39 40
345 345 344 343 344 345 347 348 349 348 348 347 347 347 347 347 347 347 346 344 344 344 343 343 343 343 344 346 347 348 350 353 353 352 352 352 353 353 351 351 354 357 358 356 356 355 357 4 14 33 40 39 36 30 25 24 26 31 36 40 43 44 44 44 44 42 41 39 39
344 344 343 342 342 344 346 348 347 347 346 346 346 346 347 347 346 346 345 345 344 343 342 342 342 344 345 347 349 352 354 353 352 351 350 350 351 351 350 352 354 356 357 357 358 358 359 4 21 44 54 44 39 34 30 30 35 41 46 48 49 50 51 51 49 47 45 42 40
343 343 343 341 341 342 344 346 346 346 345 345 345 345 345 345 345 345 346 346 346 344 343 342 343 345 347 348 350 354 355 352 351 349 348 347 349 350 351 353 354 356 357 357 359 360 2 8 27 50 62 50 42 37 36 39 44 50 52 52 51 51 52 53 53 52 49 45 42
343 343 342 341 340 340 342 344 345 345 345 345 344 344 343 343 344 346 347 347 346 345 343 342 344 347 349 349 351 355 356 353 350 348 346 345 346 349 352 355 356 356 356 357 358 0 3 12 31 53 65 56 46 41 42 45 50 54 54 53 53 52 52 53 54 53 51 47 44